Regional Weather Roundup
Issued by NWS

Home | Current Version | Previous Version | Text Only | Print | Product List | Glossary On
Versions: 1 2 3 4 5 6 7 8 9 10 11 12 13 14 15 16 17 18 19 20 21 22 23 24 25 26 27 28 29 30 31 32 33 34 35 36 37 38 39 40 41 42 43 44 45 46 47 48 49 50
000
ASUS43 KIND 181109
RWRIN

WEATHER ROUNDUP FOR INDIANA
NATIONAL WEATHER SERVICE INDIANAPOLIS IN
700 AM EDT THU JUL 18 2019

NOTE: "FAIR" INDICATES FEW OR NO CLOUDS BELOW 12,000 FEET WITH NO
SIGNIFICANT WEATHER AND/OR OBSTRUCTIONS TO VISIBILITY.

* - STATION DOES NOT REPORT WEATHER SUCH AS PRECIPITATION OR FOG.

+ - STATION NOT QUALITY CONTROLLED BY THE NATIONAL WEATHER SERVICE.
    USE DATA WITH CAUTION...ESPECIALLY DEWPOINT AND RELATIVE
    HUMIDITY OBSERVATIONS.

INZ001>003-010>013-019-020-181200-
NORTHWEST INDIANA

CITY           SKY/WX    TMP DP  RH WIND       PRES   REMARKS
GARY /AIRPORT/ MOCLDY    77  75  94 S5        29.90R
KNOX *+        FAIR      73  70  88 MISG      29.92R
LA PORTE +     MOCLDY    72  70  94 CALM      29.93R
MICHIGAN CITY+ CLOUDY   N/A N/A N/A S3        29.91R
MONTICELLO +   CLOUDY    75  73  93 S5        29.92S
RENSSELAER +   CLOUDY    73  72  94 SW3       29.93R FOG
VALPARAISO     FAIR      75  71  87 S5        29.92R

$$

LMZ046-743>745-181200-
SOUTHERN LAKE MICHIGAN

STATION/POSITION TIME  TEMP    WIND        PRES    WAVE
                       AIR SEA DIR/SP/G            HT
                 (UTC) (F)     (DEG/KT/KT) (MB)    (FT)
BURNS HARBOR     1040   76     190/  5/  6 1012.9R
MICHIGAN CITY    1040   78     180/ 10/ 12   N/A
5NW MICH CITY    1100   75 74  190/  6/  8   N/A     1

$$

INZ004-005-014>016-021>024-181200-
NORTH CENTRAL INDIANA

CITY           SKY/WX    TMP DP  RH WIND       PRES   REMARKS
ELKHART        FAIR     N/A N/A N/A CALM      29.93
GOSHEN         FAIR      73  70  90 S3        29.93R FOG
LOGANSPORT +   MOCLDY    72  72 100 CALM      29.94S FOG
PERU/GRISSOM   FAIR      73  73 100 SW5       29.94R
PLYMOUTH *+    CLEAR     73  72  94 CALM      29.93R
ROCHESTER +    FAIR      77  72  83 SW5       29.93S
SOUTH BEND     FAIR      73  70  90 S5        29.92R
WARSAW +       FAIR      72  70  94 CALM      29.93R FOG

$$

INZ006>009-017-018-025>027-181200-
NORTHEAST INDIANA

CITY           SKY/WX    TMP DP  RH WIND       PRES   REMARKS
AUBURN +       FOG       70  70 100 CALM      29.95S VSB 3/4
FORT WAYNE     MOCLDY    72  71  97 CALM      29.95R
HUNTINGTON +   FAIR      73  72  96 CALM      29.95R FOG
KENDALLVILLE +   N/A     71  71 100 CALM      29.95R FOG

$$

INZ028-029-035-036-043>045-051>053-181200-
WEST CENTRAL INDIANA

CITY           SKY/WX    TMP DP  RH WIND       PRES   REMARKS
CRAWFORDSVL +  CLOUDY    71  71 100 CALM      29.96R
GREENCASTLE +  FAIR      72  72 100 CALM      29.97R FOG
LAFAYETTE      CLOUDY    74  73  97 CALM      29.93R FOG
TERRE HAUTE    FAIR      75  74  96 SW3       29.95R FOG

$$

INZ030>032-037>040-046>048-054>057-064-065-181200-
CENTRAL INDIANA

CITY           SKY/WX    TMP DP  RH WIND       PRES   REMARKS
ANDERSON +     FAIR      72  71  97 SW3       29.97R
COLUMBUS       CLEAR     72  70  94 CALM      29.96
FISHERS *+     FAIR     N/A N/A N/A CALM      29.96R
INDIANAPOLIS   MOCLDY    75  73  93 CALM      29.95R
-EAGLE CREEK   FAIR      75  73  93 CALM      29.95R
KOKOMO +       FAIR      73  73 100 S5        29.96R FOG
MARION +       FAIR     N/A N/A N/A CALM      29.96R HAZE
SHELBYVILLE    FAIR      73  70  90 SE3       29.95R
ZIONSVILLE +   FAIR      72  72 100 CALM      29.96R FOG

$$

INZ033-034-041-042-049-050-058-059-181200-
EAST CENTRAL INDIANA

CITY           SKY/WX    TMP DP  RH WIND       PRES   REMARKS
MUNCIE         FAIR      76  72  87 SW5       29.96R
PORTLAND +     FAIR      72  70  94 CALM      29.96R
RICHMOND +     FAIR      66  66 100 SE5       29.99R FOG

$$

INZ060-061-067>069-081>083-085>088-181200-
SOUTHWEST INDIANA

CITY           SKY/WX    TMP DP  RH WIND       PRES   REMARKS
EVANSVILLE     FAIR      74  70  87 SW5       29.98R
HUNTINGBURG +  FAIR      72  72 100 S5        29.99R
WASHINGTON +   FAIR     N/A N/A N/A CALM      29.96R

$$

INZ062-063-066-070>080-084-089>092-181200-
SOUTH CENTRAL AND SOUTHEAST INDIANA

CITY           SKY/WX    TMP DP  RH WIND       PRES   REMARKS
BATESVILLE +   FOG       70  70 100 CALM      29.98R VSB 3/4
BEDFORD +        N/A     75  72  88 SW6       29.96R FOG
BLOOMINGTON    MOCLDY    76  76 100 SW8       29.96R FOG
FRENCH LICK *+ CLOUDY    72  70  94 SW6       29.99R
JEFFERSONVL +  CLOUDY    77  75  93 S5        29.96R
MADISON *+     FAIR      72  72 100 CALM      29.99R
NORTH VERNON + FAIR      72  70  94 CALM      29.96R FOG

$$




USA.gov is the U.S. government's official web portal to all federal, state and local government web resources and services.